Regional Weather Roundup
Issued by NWS

Home | Current Version | Previous Version | Text Only | Print | Product List | Glossary Off
Versions: 1 2 3 4 5 6 7 8 9 10 11 12 13 14 15 16 17 18 19 20 21 22 23 24 25 26 27 28 29 30 31 32 33 34 35 36 37 38 39 40 41 42 43 44 45 46 47 48 49 50

000
ASUS43 KIND 042359
RWRIN

WEATHER ROUNDUP FOR INDIANA
NATIONAL WEATHER SERVICE INDIANAPOLIS IN
800 PM EDT MON MAY 04 2015

NOTE: "FAIR" INDICATES FEW OR NO CLOUDS BELOW 12,000 FEET WITH NO
SIGNIFICANT WEATHER AND/OR OBSTRUCTIONS TO VISIBILITY.

* - STATION DOES NOT REPORT WEATHER SUCH AS PRECIPITATION OR FOG.

+ - STATION NOT QUALITY CONTROLLED BY THE NATIONAL WEATHER SERVICE.
    USE DATA WITH CAUTION...ESPECIALLY DEWPOINT AND RELATIVE
    HUMIDITY OBSERVATIONS.

INZ001>003-010>013-019-020-050100-
NORTHWEST INDIANA

CITY           SKY/WX    TMP DP  RH WIND       PRES   REMARKS
GARY /AIRPORT/ MOCLDY    61 N/A N/A E9        30.15S
KNOX *+        CLOUDY    70  50  49 CALM      30.13S

$$

LMZ046-743>745-050100-
SOUTHERN LAKE MICHIGAN

STATION/POSITION TIME  TEMP    WIND        PRES    WAVE
                       AIR SEA DIR/SP/G            HT
                 (UTC) (F)     (DEG/KT/KT) (MB)    (FT)
BURNS HARBOR     2300   54      70/ 11/ 13 1021.0F
MICHIGAN CITY    2300   54      40/ 13/ 14   N/A
5NW MICH CITY    2300   51 50   80/  6/  8   N/A     1

$$

INZ004-005-014>016-021>024-050100-
NORTH CENTRAL INDIANA

CITY           SKY/WX    TMP DP  RH WIND       PRES   REMARKS
ELKHART        MOCLDY    68  54  60 NW3       30.15
GOSHEN         MOCLDY    68  60  75 W3        30.14S
6HR MIN TEMP:  68; 6HR MAX TEMP:  72;

PERU/GRISSOM   LGT RAIN  64  63  94 S6        30.16R FOG
SOUTH BEND     MOCLDY    68  57  68 N9        30.15S
6HR MIN TEMP:  68; 6HR MAX TEMP:  72;

WARSAW +       CLOUDY    68  61  77 CALM      30.15S

$$

INZ006>009-017-018-025>027-050100-
NORTHEAST INDIANA

CITY           SKY/WX    TMP DP  RH WIND       PRES   REMARKS
ANGOLA *+      PTCLDY    72  59  64 W5        30.14R
FORT WAYNE     CLOUDY    65  61  87 SW5       30.17S
6HR MIN TEMP:  64; 6HR MAX TEMP:  68; 6HR PCP: TRACE;


$$

INZ028-029-035-036-043>045-051>053-050100-
WEST CENTRAL INDIANA

CITY           SKY/WX    TMP DP  RH WIND       PRES   REMARKS
GREENCASTLE +  CLOUDY    68  54  60 NE10      30.14R
LAFAYETTE      CLOUDY    63  62  97 E6        30.13S
6HR MIN TEMP:  62; 6HR MAX TEMP:  71; 6HR PCP:  0.06;

TERRE HAUTE    MOCLDY    76  58  53 S3        30.11S
6HR MIN TEMP:  76; 6HR MAX TEMP:  80;


$$

INZ030>032-037>040-046>048-054>057-064-065-050100-
CENTRAL INDIANA

CITY           SKY/WX    TMP DP  RH WIND       PRES   REMARKS
COLUMBUS       CLOUDY    72  59  64 E5        30.15S
FRANKFORT +    TSTM     N/A N/A N/A E5        30.18F
                                      6HR PCP:  0.16;

INDIANAPOLIS   CLOUDY    73  58  59 S9        30.14R
6HR MIN TEMP:  66; 6HR MAX TEMP:  76;

-EAGLE CREEK   LGT RAIN  67  58  72 N9        30.15R
6HR MIN TEMP:  65; 6HR MAX TEMP:  76; 6HR PCP: TRACE;

KOKOMO *+      CLOUDY    64  63  94 SW8       30.18R
6HR MIN TEMP:  64; 6HR MAX TEMP:  72; 6HR PCP:  0.14;

MT COMFORT *+  CLOUDY    72  50  46 N12       30.16S
SHELBYVILLE    MOCLDY    76  58  53 SE5       30.13F
6HR MIN TEMP:  70; 6HR MAX TEMP:  78; 6HR PCP: TRACE;


$$

INZ033-034-041-042-049-050-058-059-050100-
EAST CENTRAL INDIANA

CITY           SKY/WX    TMP DP  RH WIND       PRES   REMARKS
MUNCIE         LGT RAIN  68  60  75 NW3       30.17S
6HR MIN TEMP:  66; 6HR MAX TEMP:  72; 6HR PCP: TRACE;


$$

INZ060-061-067>069-081>083-085>088-050100-
SOUTHWEST INDIANA

CITY           SKY/WX    TMP DP  RH WIND       PRES   REMARKS
EVANSVILLE     PTCLDY    80  53  39 S12       30.13F
6HR MIN TEMP:  80; 6HR MAX TEMP:  85;

HUNTINGBURG *+ PTCLDY    77  55  47 S8        30.15S
6HR MIN TEMP:  77; 6HR MAX TEMP:  82;


$$

INZ062-063-066-070>080-084-089>092-050100-
SOUTH CENTRAL AND SOUTHEAST INDIANA

CITY           SKY/WX    TMP DP  RH WIND       PRES   REMARKS
BLOOMINGTON    MOCLDY    77  57  50 S6        30.13F
6HR MIN TEMP:  73; 6HR MAX TEMP:  81; 6HR PCP: TRACE;

MADISON *+     MOCLDY    73  55  53 S3        30.18S
SEYMOUR +      MOCLDY    77  57  50 SW9       30.14S

$$




USA.gov is the U.S. government's official web portal to all federal, state and local government web resources and services.